INTELSAT 33E DEB, 61999

Orbit data source: Space-Track

INTELSAT 33E DEB, 61999 is space debris in GEO originally from a launch on Wed, 24 Aug 2016 UTC launched from the French Guiana (FRGUI). Debris objects in space refer to the collection of defunct objects orbiting the Earth. Examples of debris include non-operational satellites, rocket bodies, and fragments generated from explosions, collisions, or faulty payload assembly.

Not visible in the next 10 days
Identifier
61999, 2016-053R
Orbit
GEO
Country
Flag of USUS / ITSO
Related business
Manufacturer
Boeing/ES
Mission
Spacecraft
Bus & Motor
Unknown
Mass
Unknown
Launch date (UTC)
2016-08-24 (10 years ago)
Launch vehicle
Unknown
Launch site
French Guiana (FRGUI)
Object type
Payload
Rocket body
Debris
Shape & HBR
Unknown shape, 1.1 m
Radar Cross Section
RCS unknown

Expand to show TLE details & history
Last TLE update: 2 days ago

TLE from 2 days ago
0 INTELSAT 33E DEB
1 61999U 16053R   26170.47206321 -.00000181  00000-0  00000+0 0  9990
2 61999   1.5145  76.7596 0117830  35.0978 324.9253  0.99261346  6042
Epoch: 2026-06-19T11:19Z
TLE epoch observation values (Epoch: 2026-06-19T11:19:46.261Z)
Latitude
0.00001°
Longitude
-1.63069°
Altitude
35,662.034 km
Speed
3.094 km/s
True Right ascension
05h 04m 03s
True Declination
0° 00' 00"
Sunlit
Object was in daylight at epoch
Visualization orbit readout
Latitude
Unknown
Longitude
Unknown
Altitude
Unknown
Speed
Unknown
Apparent Right ascension
Unknown
Apparent Declination
Unknown
Sunlit
N/A
Visualization observer readout
Local Sidereal Time
10:18:59
Azimuth
Unknown
Elevation
Unknown
Doppler factor
Unknown
Orbital elements
Apogee altitude
36,573.526 km
Perigee altitude
35,573.115 km
Semi-major axis
42,451.458 km
Eccentricity
0.01178
Inclination
1.5145°
RAAN
76.7596°
Arg. of periapsis
35.0978°
True anomaly
324.13996°
Mean anomaly
324.9253°
Eccentric anomaly
324.53358°
Mean motion
0.24814 °/min
Orbital period
1,450.77 mins
BSTAR
0
Loading maneuver chart data...
Computing Atmospheric mass density...
Loading historical data...
Loading historical data...
Loading historical data...
Loading historical data...
Loading historical data...
Loading historical data...
Loading historical data...

Documentation

Showing up to 5 results
|